| time (UTC) | temp F | wind direction | speed MPH | gust MPH | rain 1hr in | rain 24hr in | rain mn in | humidity % | barometer mb |
| 20260509012807 | 48 | 0.0 | 0.0 | 0.00 | 0.00 | 0.00 | 76 | 1016.1 | |
| 20260509011307 | 48 | 0.0 | 0.0 | 0.00 | 0.00 | 0.00 | 75 | 1015.6 | |
| 20260509005807 | 49 | 0.0 | 0.0 | 0.00 | 0.00 | 0.00 | 75 | 1015.5 | |
| 20260509004307 | 49 | 0.0 | 0.0 | 0.00 | 0.00 | 0.00 | 75 | 1015.8 | |
| 20260509002807 | 49 | 0.0 | 0.0 | 0.00 | 0.00 | 0.00 | 74 | 1016.0 | |
| 20260509001307 | 49 | 0.0 | 0.0 | 0.00 | 0.00 | 0.00 | 73 | 1016.1 | |
| 20260508235807 | 50 | 0.0 | 0.0 | 0.00 | 0.00 | 0.00 | 73 | 1016.1 | |
| 20260508234307 | 50 | 0.0 | 0.0 | 0.00 | 0.00 | 0.00 | 72 | 1016.1 | |
| 20260508232807 | 50 | 0.0 | 0.0 | 0.00 | 0.00 | 0.00 | 73 | 1015.9 | |
| 20260508231307 | 50 | 0.0 | 0.0 | 0.00 | 0.00 | 0.00 | 74 | 1016.0 | |
| 20260508225807 | 51 | 0.0 | 0.0 | 0.00 | 0.00 | 0.00 | 74 | 1015.9 | |
| 20260508224307 | 51 | 0.0 | 0.0 | 0.00 | 0.00 | 0.00 | 75 | 1016.1 | |
| 20260508222807 | 51 | 0.0 | 0.0 | 0.00 | 0.00 | 0.00 | 75 | 1016.3 | |
| 20260508221307 | 51 | 0.0 | 0.0 | 0.00 | 0.00 | 0.00 | 75 | 1016.2 | |
| 20260508215807 | 51 | 0.0 | 0.0 | 0.00 | 0.00 | 0.00 | 76 | 1016.3 | |
| 20260508214307 | 52 | 0.0 | 0.0 | 0.00 | 0.00 | 0.00 | 76 | 1016.0 | |
| 20260508212807 | 52 | 0.0 | 0.0 | 0.00 | 0.00 | 0.00 | 76 | 1015.9 | |
| 20260508211307 | 52 | 0.0 | 0.0 | 0.00 | 0.00 | 0.00 | 76 | 1016.1 | |
| 20260508205807 | 52 | 0.0 | 0.0 | 0.00 | 0.00 | 0.00 | 76 | 1016.0 | |
| 20260508204307 | 52 | 0.0 | 0.0 | 0.00 | 0.00 | 0.00 | 76 | 1016.2 | |
| 20260508202807 | 52 | 0.0 | 0.0 | 0.00 | 0.00 | 0.00 | 75 | 1015.9 | |
| 20260508201307 | 52 | 0.0 | 0.0 | 0.00 | 0.00 | 0.00 | 75 | 1015.9 | |
| 20260508195807 | 53 | 0.0 | 0.0 | 0.00 | 0.00 | 0.00 | 74 | 1015.7 | |
| 20260508194308 | 53 | 0.0 | 0.0 | 0.00 | 0.00 | 0.00 | 74 | 1015.8 | |
| 20260508192808 | 53 | 0.0 | 0.0 | 0.00 | 0.00 | 0.00 | 72 | 1015.6 | |
| 20260508191307 | 54 | 0.0 | 0.0 | 0.00 | 0.00 | 0.00 | 71 | 1015.1 | |
| 20260508185807 | 54 | 0.0 | 0.0 | 0.00 | 0.00 | 0.00 | 70 | 1016.0 | |
| 20260508184307 | 54 | 0.0 | 0.0 | 0.00 | 0.00 | 0.00 | 69 | 1014.9 | |
| 20260508182807 | 55 | 0.0 | 0.0 | 0.00 | 0.00 | 0.00 | 68 | 1014.9 | |
| 20260508181307 | 55 | 0.0 | 0.0 | 0.00 | 0.00 | 0.00 | 66 | 1014.8 | |
| 20260508175807 | 55 | 0.0 | 0.0 | 0.00 | 0.00 | 0.00 | 65 | 1015.1 | |
| 20260508174307 | 56 | 0.0 | 0.0 | 0.00 | 0.00 | 0.00 | 64 | 1015.1 | |
| 20260508172807 | 56 | 0.0 | 0.0 | 0.00 | 0.00 | 0.00 | 63 | 1014.5 | |
| 20260508171307 | 56 | 0.0 | 0.0 | 0.00 | 0.00 | 0.00 | 62 | 1014.7 | |
| 20260508165807 | 57 | 0.0 | 0.0 | 0.00 | 0.00 | 0.00 | 61 | 1014.9 | |
| 20260508164308 | 57 | 0.0 | 0.0 | 0.00 | 0.00 | 0.00 | 60 | 1014.4 | |
| 20260508162808 | 57 | 0.0 | 0.0 | 0.00 | 0.00 | 0.00 | 58 | 1014.8 | |
| 20260508161307 | 57 | 0.0 | 0.0 | 0.00 | 0.00 | 0.00 | 58 | 1015.0 | |
| 20260508155807 | 58 | 0.0 | 0.0 | 0.00 | 0.00 | 0.00 | 57 | 1014.6 | |
| 20260508154307 | 58 | 0.0 | 0.0 | 0.00 | 0.00 | 0.00 | 57 | 1014.6 | |
| 20260508152807 | 59 | 0.0 | 0.0 | 0.00 | 0.00 | 0.00 | 56 | 1014.2 | |
| 20260508145807 | 59 | 0.0 | 0.0 | 0.00 | 0.00 | 0.00 | 57 | 1014.9 | |
| 20260508144307 | 59 | 0.0 | 0.0 | 0.00 | 0.00 | 0.00 | 57 | 1014.7 | |
| 20260508142807 | 59 | 0.0 | 0.0 | 0.00 | 0.00 | 0.00 | 56 | 1014.4 | |
| 20260508141307 | 59 | 0.0 | 0.0 | 0.00 | 0.00 | 0.00 | 56 | 1015.4 | |
| 20260508135807 | 59 | 0.0 | 0.0 | 0.00 | 0.00 | 0.00 | 57 | 1014.6 | |
| 20260508134307 | 59 | 0.0 | 0.0 | 0.00 | 0.00 | 0.00 | 55 | 1014.3 | |
| 20260508132808 | 61 | 0.0 | 0.0 | 0.00 | 0.00 | 0.00 | 56 | 1016.7 | |
| 20260508131307 | 59 | 0.0 | 0.0 | 0.00 | 0.00 | 0.00 | 56 | 1014.6 | |
| 20260508125807 | 59 | 0.0 | 0.0 | 0.00 | 0.00 | 0.00 | 57 | 1015.7 | |
| 20260508124307 | 58 | 0.0 | 0.0 | 0.00 | 0.00 | 0.00 | 57 | 1015.0 | |
| 20260508122807 | 57 | 0.0 | 0.0 | 0.00 | 0.00 | 0.00 | 59 | 1015.4 | |
| 20260508121307 | 57 | 0.0 | 0.0 | 0.00 | 0.00 | 0.00 | 60 | 1014.7 | |
| 20260508115807 | 58 | 0.0 | 0.0 | 0.00 | 0.00 | 0.00 | 59 | 1015.6 | |
| 20260508114308 | 57 | 0.0 | 0.0 | 0.00 | 0.00 | 0.00 | 60 | 1015.5 | |
| 20260508112807 | 57 | 0.0 | 0.0 | 0.00 | 0.00 | 0.00 | 61 | 1015.6 | |
| 20260508111307 | 57 | 0.0 | 0.0 | 0.00 | 0.00 | 0.00 | 63 | 1015.7 | |
| 20260508105807 | 56 | 0.0 | 0.0 | 0.00 | 0.00 | 0.00 | 65 | 1015.3 | |
| 20260508104307 | 55 | 0.0 | 0.0 | 0.00 | 0.00 | 0.00 | 66 | 1015.7 | |
| 20260508102807 | 54 | 0.0 | 0.0 | 0.00 | 0.00 | 0.00 | 67 | 1015.0 | |
| 20260508101307 | 54 | 0.0 | 0.0 | 0.00 | 0.00 | 0.00 | 67 | 1015.7 | |
| 20260508095807 | 54 | 0.0 | 0.0 | 0.00 | 0.00 | 0.00 | 67 | 1016.2 | |
| 20260508094307 | 54 | 0.0 | 0.0 | 0.00 | 0.00 | 0.00 | 68 | 1015.8 | |
| 20260508092807 | 53 | 0.0 | 0.0 | 0.00 | 0.00 | 0.00 | 70 | 1016.0 | |
| 20260508091307 | 53 | 0.0 | 0.0 | 0.00 | 0.00 | 0.00 | 71 | 1016.0 | |
| 20260508085807 | 52 | 0.0 | 0.0 | 0.00 | 0.00 | 0.00 | 70 | 1015.6 | |
| 20260508084307 | 52 | 0.0 | 0.0 | 0.00 | 0.00 | 0.00 | 71 | 1015.5 | |
| 20260508082807 | 53 | 0.0 | 0.0 | 0.00 | 0.00 | 0.00 | 70 | 1015.1 | |
| 20260508081307 | 53 | 0.0 | 0.0 | 0.00 | 0.00 | 0.00 | 72 | 1014.4 | |
| 20260508075807 | 52 | 0.0 | 0.0 | 0.00 | 0.00 | 0.00 | 73 | 1015.3 | |
| 20260508074307 | 52 | 0.0 | 0.0 | 0.00 | 0.00 | 0.00 | 73 | 1015.7 | |
| 20260508071307 | 51 | 0.0 | 0.0 | 0.00 | 0.00 | 0.00 | 74 | 1015.1 | |
| 20260508065807 | 50 | 0.0 | 0.0 | 0.00 | 0.00 | 0.00 | 75 | 1014.4 | |
| 20260508064307 | 50 | 0.0 | 0.0 | 0.00 | 0.00 | 0.00 | 76 | 1014.4 | |
| 20260508062807 | 50 | 0.0 | 0.0 | 0.00 | 0.00 | 0.00 | 75 | 1014.9 | |
| 20260508061307 | 50 | 0.0 | 0.0 | 0.00 | 0.00 | 0.00 | 76 | 1014.4 | |
| 20260508055807 | 50 | 0.0 | 0.0 | 0.00 | 0.00 | 0.00 | 77 | 1014.7 | |
| 20260508054307 | 49 | 0.0 | 0.0 | 0.00 | 0.00 | 0.00 | 78 | 1015.0 | |
| 20260508052807 | 47 | 0.0 | 0.0 | 0.00 | 0.00 | 0.00 | 81 | 1014.4 | |
| 20260508051307 | 46 | 0.0 | 0.0 | 0.00 | 0.00 | 0.00 | 82 | 1014.3 | |
| 20260508045807 | 45 | 0.0 | 0.0 | 0.00 | 0.00 | 0.00 | 83 | 1014.2 | |
| 20260508044307 | 45 | 0.0 | 0.0 | 0.00 | 0.00 | 0.00 | 84 | 1014.3 | |
| 20260508042807 | 44 | 0.0 | 0.0 | 0.00 | 0.00 | 0.00 | 84 | 1014.3 | |
| 20260508041307 | 44 | 0.0 | 0.0 | 0.00 | 0.00 | 0.00 | 85 | 1014.1 | |
| 20260508035807 | 44 | 0.0 | 0.0 | 0.00 | 0.00 | 0.00 | 85 | 1014.0 | |
| 20260508034307 | 44 | 0.0 | 0.0 | 0.00 | 0.00 | 0.00 | 85 | 1013.9 | |
| 20260508032808 | 44 | 0.0 | 0.0 | 0.00 | 0.00 | 0.00 | 84 | 1013.8 | |
| 20260508031307 | 45 | 0.0 | 0.0 | 0.00 | 0.00 | 0.00 | 84 | 1013.7 | |
| 20260508025807 | 45 | 0.0 | 0.0 | 0.00 | 0.00 | 0.00 | 84 | 1013.8 | |
| 20260508024307 | 46 | 0.0 | 0.0 | 0.00 | 0.00 | 0.00 | 84 | 1013.8 | |
| 20260508022808 | 46 | 0.0 | 0.0 | 0.00 | 0.00 | 0.00 | 85 | 1013.6 | |
| 20260508021307 | 46 | 0.0 | 0.0 | 0.00 | 0.00 | 0.00 | 85 | 1013.7 | |
| 20260508015807 | 46 | 0.0 | 0.0 | 0.00 | 0.00 | 0.00 | 86 | 1013.6 | |
| 20260508014307 | 46 | 0.0 | 0.0 | 0.00 | 0.00 | 0.00 | 86 | 1013.5 |